| time (UTC) | temp F | wind direction | speed knots | gust knots | rain 1hr in | rain 24hr in | rain mn in | humidity % | barometer mb |
| 20260507040517 | 43 | 180 | 0.9 | 1.7 | 0.00 | 0.58 | 0.04 | 97 | 1013.9 |
| 20260507035517 | 43 | 180 | 0.9 | 1.7 | 0.00 | 0.58 | 0.04 | 97 | 1013.6 |
| 20260507034517 | 43 | 180 | 1.7 | 3.5 | 0.00 | 0.58 | 0.04 | 97 | 1013.4 |
| 20260507033519 | 43 | 203 | 1.7 | 2.6 | 0.00 | 0.58 | 0.04 | 97 | 1013.7 |
| 20260507032517 | 43 | 180 | 1.7 | 2.6 | 0.00 | 0.58 | 0.04 | 97 | 1013.6 |
| 20260507031517 | 43 | 180 | 0.9 | 1.7 | 0.00 | 0.58 | 0.04 | 97 | 1013.5 |
| 20260507030517 | 42 | 180 | 0.9 | 1.7 | 0.00 | 0.58 | 0.04 | 97 | 1013.4 |
| 20260507025517 | 42 | 0.0 | 0.9 | 0.00 | 0.58 | 0.04 | 97 | 1013.4 | |
| 20260507024517 | 42 | 180 | 0.9 | 1.7 | 0.00 | 0.58 | 0.04 | 97 | 1013.5 |
| 20260507023517 | 42 | 180 | 0.9 | 2.6 | 0.00 | 0.59 | 0.04 | 97 | 1013.4 |
| 20260507022517 | 42 | 0.0 | 1.7 | 0.00 | 0.59 | 0.04 | 97 | 1013.4 | |
| 20260507021517 | 42 | 180 | 0.9 | 1.7 | 0.00 | 0.59 | 0.04 | 97 | 1013.6 |
| 20260507020517 | 42 | 0.0 | 1.7 | 0.00 | 0.59 | 0.04 | 97 | 1013.5 | |
| 20260507015517 | 42 | 180 | 2.6 | 4.3 | 0.00 | 0.59 | 0.04 | 97 | 1013.5 |
| 20260507014517 | 42 | 203 | 0.9 | 2.6 | 0.00 | 0.59 | 0.04 | 96 | 1013.4 |
| 20260507013517 | 42 | 180 | 2.6 | 4.3 | 0.00 | 0.59 | 0.04 | 96 | 1013.4 |
| 20260507012517 | 43 | 158 | 0.9 | 1.7 | 0.00 | 0.59 | 0.04 | 96 | 1013.2 |
| 20260507011517 | 42 | 158 | 0.9 | 1.7 | 0.00 | 0.59 | 0.04 | 97 | 1013.4 |
| 20260507010517 | 42 | 0.0 | 0.0 | 0.00 | 0.59 | 0.04 | 97 | 1013.3 | |
| 20260507005517 | 42 | 203 | 0.9 | 1.7 | 0.00 | 0.59 | 0.04 | 97 | 1013.3 |
| 20260507004517 | 42 | 135 | 0.9 | 2.6 | 0.00 | 0.59 | 0.04 | 97 | 1012.9 |
| 20260507003517 | 42 | 158 | 0.9 | 2.6 | 0.00 | 0.59 | 0.04 | 97 | 1013.0 |
| 20260507002517 | 42 | 203 | 1.7 | 2.6 | 0.00 | 0.59 | 0.04 | 97 | 1013.1 |
| 20260507001517 | 42 | 203 | 0.9 | 2.6 | 0.00 | 0.59 | 0.04 | 96 | 1012.8 |
| 20260507000517 | 43 | 203 | 1.7 | 3.5 | 0.00 | 0.59 | 0.04 | 96 | 1012.9 |
| 20260506235517 | 43 | 203 | 1.7 | 2.6 | 0.00 | 0.59 | 0.04 | 96 | 1013.0 |
| 20260506234517 | 43 | 0.0 | 1.7 | 0.00 | 0.59 | 0.04 | 96 | 1012.9 | |
| 20260506233517 | 43 | 0 | 1.7 | 2.6 | 0.01 | 0.59 | 0.04 | 96 | 1013.0 |
| 20260506232517 | 43 | 23 | 0.9 | 2.6 | 0.01 | 0.59 | 0.04 | 95 | 1012.9 |
| 20260506231517 | 43 | 293 | 0.9 | 3.5 | 0.04 | 0.59 | 0.04 | 95 | 1013.1 |
| 20260506230517 | 43 | 180 | 0.9 | 1.7 | 0.04 | 0.59 | 0.04 | 95 | 1013.0 |
| 20260506225517 | 43 | 68 | 1.7 | 3.5 | 0.04 | 0.60 | 0.04 | 96 | 1013.0 |
| 20260506224517 | 43 | 225 | 1.7 | 2.6 | 0.04 | 0.60 | 0.04 | 95 | 1013.0 |
| 20260506223517 | 44 | 158 | 0.9 | 2.6 | 0.03 | 0.59 | 0.03 | 95 | 1013.0 |
| 20260506222517 | 43 | 68 | 1.7 | 3.5 | 0.03 | 0.59 | 0.03 | 96 | 1013.0 |
| 20260506221517 | 43 | 180 | 2.6 | 4.3 | 0.00 | 0.56 | 0.00 | 95 | 1012.8 |
| 20260506220517 | 43 | 203 | 0.9 | 1.7 | 0.00 | 0.56 | 0.00 | 95 | 1012.6 |
| 20260506215517 | 43 | 203 | 1.7 | 3.5 | 0.00 | 0.58 | 0.57 | 95 | 1012.4 |
| 20260506214517 | 43 | 158 | 1.7 | 4.3 | 0.00 | 0.61 | 0.57 | 95 | 1012.5 |
| 20260506213520 | 43 | 158 | 0.9 | 1.7 | 0.00 | 0.62 | 0.57 | 94 | 1012.5 |
| 20260506212517 | 43 | 203 | 1.7 | 3.5 | 0.00 | 0.63 | 0.57 | 94 | 1012.3 |
| 20260506211517 | 43 | 203 | 2.6 | 4.3 | 0.00 | 0.65 | 0.57 | 94 | 1012.5 |
| 20260506210517 | 43 | 158 | 1.7 | 3.5 | 0.00 | 0.65 | 0.57 | 94 | 1012.3 |
| 20260506205517 | 43 | 203 | 1.7 | 3.5 | 0.00 | 0.65 | 0.57 | 94 | 1012.3 |
| 20260506204517 | 43 | 203 | 1.7 | 3.5 | 0.00 | 0.65 | 0.57 | 94 | 1012.4 |
| 20260506203517 | 43 | 158 | 1.7 | 4.3 | 0.00 | 0.65 | 0.57 | 94 | 1012.3 |
| 20260506202517 | 43 | 203 | 1.7 | 4.3 | 0.00 | 0.67 | 0.57 | 94 | 1012.2 |
| 20260506201517 | 43 | 180 | 0.9 | 3.5 | 0.00 | 0.72 | 0.57 | 94 | 1012.1 |
| 20260506200517 | 43 | 203 | 1.7 | 3.5 | 0.00 | 0.76 | 0.57 | 94 | 1011.9 |
| 20260506195517 | 43 | 180 | 2.6 | 4.3 | 0.00 | 0.80 | 0.57 | 93 | 1011.8 |
| 20260506194517 | 44 | 180 | 0.9 | 2.6 | 0.00 | 0.84 | 0.57 | 94 | 1011.6 |
| 20260506193517 | 44 | 180 | 1.7 | 3.5 | 0.00 | 0.87 | 0.57 | 94 | 1011.4 |
| 20260506192517 | 44 | 225 | 1.7 | 2.6 | 0.00 | 0.87 | 0.57 | 93 | 1011.4 |
| 20260506191517 | 44 | 158 | 1.7 | 3.5 | 0.00 | 0.87 | 0.57 | 93 | 1011.2 |
| 20260506190517 | 44 | 180 | 1.7 | 3.5 | 0.00 | 0.87 | 0.57 | 93 | 1011.2 |
| 20260506185517 | 44 | 180 | 1.7 | 3.5 | 0.00 | 0.87 | 0.57 | 92 | 1011.2 |
| 20260506184517 | 45 | 158 | 0.9 | 3.5 | 0.00 | 0.87 | 0.57 | 92 | 1011.0 |
| 20260506183517 | 45 | 180 | 0.9 | 1.7 | 0.00 | 0.92 | 0.57 | 91 | 1010.8 |
| 20260506182517 | 45 | 203 | 1.7 | 2.6 | 0.00 | 1.06 | 0.57 | 91 | 1010.7 |
| 20260506181517 | 46 | 203 | 1.7 | 2.6 | 0.00 | 1.10 | 0.57 | 90 | 1010.7 |
| 20260506180517 | 46 | 225 | 1.7 | 3.5 | 0.00 | 1.14 | 0.57 | 90 | 1010.7 |
| 20260506175517 | 47 | 203 | 2.6 | 3.5 | 0.00 | 1.17 | 0.57 | 89 | 1010.5 |
| 20260506174517 | 48 | 225 | 1.7 | 3.5 | 0.00 | 1.17 | 0.57 | 87 | 1010.6 |
| 20260506173517 | 48 | 0.0 | 1.7 | 0.00 | 1.17 | 0.57 | 86 | 1010.5 | |
| 20260506172516 | 49 | 0.0 | 0.0 | 0.00 | 1.17 | 0.57 | 85 | 1010.4 | |
| 20260506171516 | 50 | 0.0 | 1.7 | 0.00 | 1.17 | 0.57 | 83 | 1010.5 | |
| 20260506170517 | 52 | 203 | 2.6 | 5.2 | 0.00 | 1.17 | 0.57 | 79 | 1010.7 |
| 20260506165516 | 53 | 315 | 0.9 | 2.6 | 0.00 | 1.17 | 0.57 | 80 | 1010.7 |
| 20260506164517 | 52 | 338 | 0.9 | 1.7 | 0.00 | 1.17 | 0.57 | 79 | 1010.5 |
| 20260506163516 | 53 | 338 | 2.6 | 3.5 | 0.00 | 1.17 | 0.57 | 77 | 1010.7 |
| 20260506162516 | 52 | 338 | 2.6 | 5.2 | 0.00 | 1.17 | 0.57 | 80 | 1010.5 |
| 20260506161516 | 53 | 315 | 4.3 | 7.8 | 0.00 | 1.17 | 0.57 | 79 | 1010.8 |
| 20260506160516 | 52 | 338 | 2.6 | 4.3 | 0.00 | 1.17 | 0.57 | 81 | 1010.5 |
| 20260506155516 | 51 | 315 | 2.6 | 4.3 | 0.00 | 1.17 | 0.57 | 81 | 1010.5 |
| 20260506154516 | 51 | 315 | 4.3 | 5.2 | 0.00 | 1.17 | 0.57 | 82 | 1010.6 |
| 20260506153516 | 50 | 338 | 3.5 | 5.2 | 0.00 | 1.17 | 0.57 | 80 | 1010.6 |
| 20260506152517 | 50 | 0 | 4.3 | 7.0 | 0.00 | 1.17 | 0.57 | 80 | 1010.4 |
| 20260506151516 | 49 | 338 | 3.5 | 5.2 | 0.00 | 1.17 | 0.57 | 81 | 1010.5 |
| 20260506150516 | 49 | 338 | 2.6 | 4.3 | 0.00 | 1.17 | 0.57 | 82 | 1010.5 |
| 20260506145516 | 49 | 338 | 4.3 | 7.0 | 0.00 | 1.17 | 0.57 | 82 | 1010.6 |
| 20260506144516 | 49 | 338 | 3.5 | 6.1 | 0.00 | 1.17 | 0.57 | 82 | 1010.5 |
| 20260506143516 | 49 | 338 | 3.5 | 5.2 | 0.00 | 1.17 | 0.57 | 83 | 1010.7 |
| 20260506142517 | 49 | 338 | 4.3 | 7.8 | 0.00 | 1.17 | 0.57 | 84 | 1010.5 |
| 20260506141516 | 49 | 0 | 4.3 | 7.8 | 0.00 | 1.17 | 0.57 | 83 | 1010.8 |
| 20260506140516 | 49 | 0 | 6.1 | 10.4 | 0.00 | 1.17 | 0.57 | 83 | 1010.7 |
| 20260506135516 | 51 | 315 | 5.2 | 11.3 | 0.00 | 1.17 | 0.57 | 84 | 1010.9 |
| 20260506134516 | 51 | 338 | 2.6 | 6.1 | 0.00 | 1.17 | 0.57 | 77 | 1011.0 |
| 20260506133516 | 50 | 203 | 3.5 | 6.1 | 0.00 | 1.17 | 0.57 | 76 | 1010.8 |
| 20260506132516 | 50 | 180 | 2.6 | 6.1 | 0.00 | 1.17 | 0.57 | 74 | 1010.9 |
| 20260506131516 | 51 | 225 | 3.5 | 5.2 | 0.00 | 1.17 | 0.57 | 77 | 1011.2 |
| 20260506130516 | 51 | 225 | 2.6 | 5.2 | 0.00 | 1.17 | 0.57 | 77 | 1010.9 |
| 20260506125516 | 51 | 203 | 5.2 | 9.6 | 0.00 | 1.17 | 0.57 | 82 | 1010.9 |
| 20260506124516 | 50 | 203 | 4.3 | 7.8 | 0.01 | 1.17 | 0.57 | 83 | 1011.0 |
| 20260506123516 | 49 | 203 | 4.3 | 7.0 | 0.01 | 1.17 | 0.57 | 88 | 1010.8 |
| 20260506122516 | 48 | 203 | 5.2 | 7.8 | 0.02 | 1.17 | 0.57 | 86 | 1010.8 |
| 20260506121516 | 48 | 180 | 4.3 | 8.7 | 0.02 | 1.17 | 0.57 | 85 | 1010.6 |
| 20260506120516 | 46 | 180 | 3.5 | 6.1 | 0.05 | 1.19 | 0.57 | 91 | 1010.7 |
| 20260506115516 | 45 | 203 | 3.5 | 5.2 | 0.07 | 1.22 | 0.57 | 91 | 1010.5 |
| 20260506114517 | 45 | 203 | 5.2 | 7.8 | 0.07 | 1.27 | 0.56 | 90 | 1010.4 |
| 20260506113516 | 45 | 203 | 5.2 | 7.8 | 0.08 | 1.33 | 0.56 | 92 | 1010.5 |
| 20260506112516 | 44 | 203 | 4.3 | 7.8 | 0.07 | 1.35 | 0.55 | 92 | 1010.6 |
| 20260506111516 | 44 | 203 | 6.1 | 10.4 | 0.07 | 1.39 | 0.54 | 92 | 1010.5 |
| 20260506110516 | 44 | 203 | 3.5 | 7.8 | 0.06 | 1.42 | 0.52 | 93 | 1010.3 |
| 20260506105516 | 45 | 203 | 3.5 | 9.6 | 0.04 | 1.43 | 0.50 | 92 | 1010.3 |
| 20260506104516 | 45 | 180 | 3.5 | 7.8 | 0.06 | 1.44 | 0.49 | 91 | 1010.2 |
| 20260506103516 | 46 | 203 | 6.1 | 9.6 | 0.07 | 1.44 | 0.48 | 91 | 1010.1 |
| 20260506102516 | 46 | 203 | 5.2 | 10.4 | 0.09 | 1.44 | 0.48 | 91 | 1010.0 |
| 20260506101516 | 47 | 248 | 1.7 | 4.3 | 0.08 | 1.43 | 0.47 | 92 | 1010.1 |
| 20260506100516 | 46 | 135 | 3.5 | 7.8 | 0.08 | 1.43 | 0.46 | 91 | 1009.7 |
| 20260506095516 | 46 | 203 | 3.5 | 7.8 | 0.08 | 1.43 | 0.46 | 89 | 1009.8 |
| 20260506094516 | 45 | 203 | 3.5 | 8.7 | 0.06 | 1.42 | 0.43 | 92 | 1009.5 |
| 20260506093516 | 45 | 180 | 6.1 | 8.7 | 0.06 | 1.39 | 0.41 | 91 | 1009.4 |
| 20260506092516 | 45 | 135 | 4.3 | 7.8 | 0.06 | 1.38 | 0.39 | 89 | 1009.2 |
| 20260506091516 | 45 | 158 | 5.2 | 9.6 | 0.09 | 1.39 | 0.39 | 89 | 1009.1 |
| 20260506090516 | 45 | 135 | 7.0 | 15.6 | 0.09 | 1.38 | 0.39 | 89 | 1009.1 |
| 20260506085516 | 45 | 135 | 5.2 | 13.0 | 0.09 | 1.38 | 0.38 | 91 | 1008.9 |
| 20260506084516 | 45 | 180 | 7.8 | 19.1 | 0.09 | 1.37 | 0.37 | 89 | 1008.9 |
| 20260506083516 | 45 | 180 | 6.1 | 9.6 | 0.09 | 1.35 | 0.35 | 93 | 1008.7 |
| 20260506082516 | 45 | 203 | 2.6 | 6.1 | 0.06 | 1.33 | 0.33 | 95 | 1008.7 |
| 20260506081515 | 45 | 180 | 7.0 | 14.8 | 0.04 | 1.30 | 0.30 | 95 | 1008.4 |
| 20260506080516 | 45 | 203 | 2.6 | 7.8 | 0.05 | 1.29 | 0.29 | 98 | 1008.2 |
| 20260506073515 | 45 | 338 | 1.7 | 3.5 | 0.11 | 1.27 | 0.27 | 98 | 1008.3 |
| 20260506072515 | 45 | 0.0 | 1.7 | 0.14 | 1.27 | 0.27 | 98 | 1008.2 | |
| 20260506071515 | 44 | 0.0 | 0.0 | 0.15 | 1.26 | 0.26 | 98 | 1008.1 | |
| 20260506070515 | 44 | 0.0 | 1.7 | 0.15 | 1.24 | 0.24 | 98 | 1008.0 | |
| 20260506062515 | 44 | 0.0 | 0.9 | 0.07 | 1.13 | 0.13 | 98 | 1007.7 | |
| 20260506061515 | 44 | 315 | 1.7 | 2.6 | 0.06 | 1.11 | 0.11 | 98 | 1007.8 |
| 20260506060515 | 44 | 0.0 | 1.7 | 0.04 | 1.09 | 0.09 | 98 | 1007.9 | |
| 20260506050517 | 44 | 0.0 | 1.7 | 0.03 | 1.06 | 0.06 | 98 | 1007.8 | |
| 20260506044517 | 44 | 113 | 0.9 | 2.6 | 0.03 | 1.06 | 0.06 | 98 | 1008.0 |
| 20260506043517 | 43 | 0.0 | 0.9 | 0.02 | 1.05 | 0.04 | 98 | 1007.7 | |
| 20260506042517 | 43 | 0.0 | 0.0 | 0.01 | 1.04 | 0.03 | 98 | 1007.7 | |
| 20260506041517 | 43 | 180 | 0.9 | 1.7 | 0.00 | 1.05 | 0.02 | 98 | 1007.9 |